SAS903 EKCH-EDDH

Flight info

Callsign SAS903
Flight time 0h 35m
Altitude 24000
Route NEXEN T503 MICOS/N0444F280 N850 BOGMU BOGMU5A
Aircraft A320/M-SDE3FGHIRWY/LB1

Departure

Time 2026-05-05 07:24
Airport Copenhagen Kastrup Airport (EKCH)

Arrival

Time 2026-05-05 08:00
Airport Hamburg Helmut Schmidt Airport (EDDH)
Time Latitude Longitude Altitude Speed Heading
2026-05-05 07:03 55.62648 12.64555 26 ft 0 kts 281°
2026-05-05 07:16 55.62648 12.64562 26 ft 3 kts 281°
2026-05-05 07:16 55.62642 12.64607 24 ft 3 kts 281°
2026-05-05 07:16 55.62640 12.64643 26 ft 4 kts 249°
2026-05-05 07:16 55.62656 12.64669 28 ft 4 kts 192°
2026-05-05 07:17 55.62671 12.64675 27 ft 4 kts 191°
2026-05-05 07:17 55.62674 12.64676 27 ft 2 kts 191°
2026-05-05 07:17 55.62676 12.64677 26 ft 0 kts 191°
2026-05-05 07:20 55.62668 12.64674 27 ft 4 kts 191°
2026-05-05 07:20 55.62629 12.64660 27 ft 7 kts 191°
2026-05-05 07:20 55.62571 12.64648 24 ft 10 kts 182°
2026-05-05 07:20 55.62496 12.64658 26 ft 12 kts 174°
2026-05-05 07:21 55.62406 12.64673 25 ft 10 kts 180°
2026-05-05 07:21 55.62347 12.64646 24 ft 9 kts 184°
2026-05-05 07:21 55.62295 12.64579 24 ft 11 kts 245°
2026-05-05 07:21 55.62258 12.64432 22 ft 15 kts 244°
2026-05-05 07:22 55.62164 12.64316 23 ft 18 kts 204°
2026-05-05 07:22 55.62048 12.64215 25 ft 20 kts 207°
2026-05-05 07:22 55.61915 12.64107 25 ft 20 kts 206°
2026-05-05 07:22 55.61792 12.64075 24 ft 19 kts 176°
2026-05-05 07:23 55.61657 12.64089 27 ft 20 kts 184°
2026-05-05 07:23 55.61551 12.63954 27 ft 13 kts 222°
2026-05-05 07:23 55.61505 12.63882 29 ft 10 kts 221°
2026-05-05 07:23 55.61342 12.63627 26 ft 66 kts 222°
2026-05-05 07:24 55.60827 12.62830 24 ft 128 kts 221°
2026-05-05 07:24 55.60041 12.61596 62 ft 169 kts 225°
2026-05-05 07:24 55.59184 12.60231 769 ft 165 kts 224°
2026-05-05 07:24 55.58310 12.58893 1422 ft 171 kts 223°
2026-05-05 07:25 55.57357 12.57432 1749 ft 193 kts 223°
2026-05-05 07:25 55.56248 12.55849 2032 ft 218 kts 218°
2026-05-05 07:25 55.54943 12.54214 2442 ft 242 kts 216°
2026-05-05 07:25 55.53512 12.52485 3041 ft 259 kts 216°
2026-05-05 07:26 55.52025 12.50671 4050 ft 260 kts 217°
2026-05-05 07:26 55.50553 12.48808 5083 ft 261 kts 218°
2026-05-05 07:26 55.49079 12.46916 6110 ft 261 kts 218°
2026-05-05 07:26 55.47610 12.45024 7088 ft 261 kts 219°
2026-05-05 07:27 55.46142 12.43136 8022 ft 262 kts 219°
2026-05-05 07:27 55.44665 12.41241 8956 ft 263 kts 219°
2026-05-05 07:27 55.43179 12.39338 9867 ft 265 kts 219°
2026-05-05 07:27 55.41661 12.37394 10388 ft 280 kts 219°
2026-05-05 07:28 55.40017 12.35284 10606 ft 304 kts 219°
2026-05-05 07:28 55.38242 12.33011 10769 ft 327 kts 219°
2026-05-05 07:28 55.36365 12.30621 11227 ft 337 kts 219°
2026-05-05 07:28 55.34474 12.28227 11874 ft 341 kts 219°
2026-05-05 07:29 55.32535 12.25781 12551 ft 345 kts 219°
2026-05-05 07:29 55.30577 12.23306 13246 ft 349 kts 219°
2026-05-05 07:29 55.28598 12.20802 13927 ft 353 kts 219°
2026-05-05 07:29 55.26596 12.18276 14544 ft 356 kts 219°
2026-05-05 07:30 55.24577 12.15730 15175 ft 359 kts 219°
2026-05-05 07:30 55.20490 12.10585 16436 ft 364 kts 219°
2026-05-05 07:30 55.18424 12.07988 17050 ft 367 kts 219°
2026-05-05 07:31 55.16340 12.05370 17677 ft 371 kts 219°
2026-05-05 07:31 55.14236 12.02731 18322 ft 374 kts 219°
2026-05-05 07:31 55.12115 12.00074 18897 ft 377 kts 218°
2026-05-05 07:31 55.09967 11.97388 19492 ft 379 kts 218°
2026-05-05 07:32 55.07817 11.94700 20075 ft 381 kts 218°
2026-05-05 07:32 55.05680 11.92033 20640 ft 383 kts 218°
2026-05-05 07:32 55.03505 11.89322 21179 ft 385 kts 218°
2026-05-05 07:32 55.01319 11.86598 21694 ft 387 kts 218°
2026-05-05 07:33 54.99122 11.83864 22183 ft 389 kts 218°
2026-05-05 07:33 54.96908 11.81115 22655 ft 391 kts 218°
2026-05-05 07:33 54.94681 11.78359 22909 ft 396 kts 218°
2026-05-05 07:33 54.92407 11.75543 22976 ft 407 kts 217°
2026-05-05 07:34 54.90074 11.72655 22975 ft 417 kts 217°
2026-05-05 07:34 54.87683 11.69704 22973 ft 426 kts 217°
2026-05-05 07:34 54.85236 11.66699 22968 ft 432 kts 217°
2026-05-05 07:34 54.82760 11.63664 22972 ft 440 kts 217°
2026-05-05 07:35 54.80247 11.60580 22968 ft 444 kts 217°
2026-05-05 07:35 54.77718 11.57477 22969 ft 446 kts 217°
2026-05-05 07:35 54.75184 11.54370 22970 ft 446 kts 217°
2026-05-05 07:35 54.72650 11.51270 22972 ft 446 kts 217°
2026-05-05 07:36 54.70137 11.48204 22963 ft 449 kts 217°
2026-05-05 07:36 54.67575 11.45086 22968 ft 451 kts 217°
2026-05-05 07:36 54.65013 11.41973 22977 ft 452 kts 217°
2026-05-05 07:36 54.62436 11.38844 22966 ft 452 kts 217°
2026-05-05 07:37 54.59866 11.35726 22991 ft 452 kts 217°
2026-05-05 07:37 54.57296 11.32615 22989 ft 450 kts 217°
2026-05-05 07:37 54.54734 11.29518 22991 ft 449 kts 217°
2026-05-05 07:37 54.52191 11.26449 23005 ft 446 kts 217°
2026-05-05 07:38 54.49650 11.23391 22999 ft 443 kts 217°
2026-05-05 07:38 54.47118 11.20345 22967 ft 443 kts 216°
2026-05-05 07:38 54.44594 11.17316 22959 ft 442 kts 216°
2026-05-05 07:38 54.42912 11.15352 22948 ft 443 kts 215°
2026-05-05 07:39 54.40328 11.12440 22938 ft 444 kts 214°
2026-05-05 07:39 54.37716 11.09578 22933 ft 445 kts 214°
2026-05-05 07:39 54.34242 11.05816 22935 ft 446 kts 214°
2026-05-05 07:39 54.31640 11.02993 22774 ft 439 kts 214°
2026-05-05 07:40 54.29076 11.00197 22496 ft 435 kts 214°
2026-05-05 07:40 54.27355 10.98311 22315 ft 434 kts 214°
2026-05-05 07:40 54.24820 10.95524 22032 ft 432 kts 214°
2026-05-05 07:40 54.22292 10.92742 21762 ft 433 kts 214°
2026-05-05 07:41 54.19760 10.89957 21506 ft 433 kts 214°
2026-05-05 07:41 54.17259 10.87214 21258 ft 432 kts 214°
2026-05-05 07:41 54.14740 10.84461 20993 ft 426 kts 214°
2026-05-05 07:41 54.12279 10.81783 20551 ft 412 kts 214°
2026-05-05 07:42 54.09894 10.79191 20098 ft 401 kts 214°
2026-05-05 07:42 54.07568 10.76665 19651 ft 392 kts 214°
2026-05-05 07:42 54.05284 10.74189 19215 ft 386 kts 214°
2026-05-05 07:42 54.03033 10.71751 18791 ft 381 kts 214°
2026-05-05 07:43 54.00808 10.69339 18334 ft 376 kts 214°
2026-05-05 07:43 53.98618 10.66966 17863 ft 370 kts 214°
2026-05-05 07:43 53.96461 10.64635 17381 ft 365 kts 214°
2026-05-05 07:43 53.94333 10.62338 16905 ft 360 kts 214°
2026-05-05 07:44 53.92231 10.60071 16439 ft 356 kts 214°
2026-05-05 07:44 53.90151 10.57834 15975 ft 352 kts 214°
2026-05-05 07:44 53.88109 10.55644 15534 ft 338 kts 213°
2026-05-05 07:44 53.86190 10.53589 15035 ft 324 kts 214°
2026-05-05 07:45 53.84323 10.51589 14550 ft 312 kts 214°
2026-05-05 07:45 53.82521 10.49661 14073 ft 302 kts 214°
2026-05-05 07:45 53.80758 10.47774 13590 ft 300 kts 214°
2026-05-05 07:45 53.78985 10.45872 13046 ft 303 kts 214°
2026-05-05 07:46 53.77194 10.43955 12514 ft 306 kts 213°
2026-05-05 07:46 53.75389 10.42024 11999 ft 308 kts 213°
2026-05-05 07:46 53.73590 10.40079 11484 ft 304 kts 216°
2026-05-05 07:46 53.71935 10.37967 10988 ft 293 kts 221°
2026-05-05 07:47 53.70457 10.35671 10497 ft 284 kts 226°
2026-05-05 07:47 53.69141 10.33224 10014 ft 279 kts 231°
2026-05-05 07:47 53.67912 10.30705 9494 ft 277 kts 231°
2026-05-05 07:47 53.66672 10.28170 9005 ft 281 kts 231°
2026-05-05 07:48 53.65429 10.25640 8691 ft 276 kts 230°
2026-05-05 07:48 53.64212 10.23171 8311 ft 273 kts 230°
2026-05-05 07:48 53.63004 10.20724 7979 ft 271 kts 230°
2026-05-05 07:48 53.61795 10.18278 7632 ft 270 kts 230°
2026-05-05 07:49 53.60596 10.15857 7287 ft 269 kts 230°
2026-05-05 07:49 53.59415 10.13475 6977 ft 268 kts 230°
2026-05-05 07:49 53.58222 10.11079 6663 ft 266 kts 230°
2026-05-05 07:49 53.57038 10.08710 6343 ft 264 kts 230°
2026-05-05 07:50 53.55848 10.06342 5957 ft 265 kts 230°
2026-05-05 07:50 53.54650 10.03976 5580 ft 265 kts 230°
2026-05-05 07:50 53.53458 10.01622 5258 ft 264 kts 230°
2026-05-05 07:50 53.52272 9.99289 5074 ft 261 kts 230°
2026-05-05 07:51 53.51092 9.96960 5035 ft 262 kts 230°
2026-05-05 07:51 53.49911 9.94635 5033 ft 261 kts 230°
2026-05-05 07:51 53.48727 9.92302 5036 ft 262 kts 230°
2026-05-05 07:51 53.47540 9.89969 5035 ft 263 kts 230°
2026-05-05 07:52 53.46351 9.87617 5034 ft 264 kts 230°
2026-05-05 07:52 53.45164 9.85274 5035 ft 263 kts 230°
2026-05-05 07:52 53.43979 9.82945 5036 ft 262 kts 230°
2026-05-05 07:52 53.42804 9.80654 5023 ft 262 kts 230°
2026-05-05 07:53 53.41615 9.78325 5021 ft 263 kts 230°
2026-05-05 07:53 53.40504 9.75903 5010 ft 261 kts 243°
2026-05-05 07:53 53.40043 9.73005 4686 ft 258 kts 270°
2026-05-05 07:53 53.40462 9.70125 4087 ft 256 kts 299°
2026-05-05 07:54 53.41669 9.67977 3474 ft 256 kts 328°
2026-05-05 07:54 53.43246 9.66541 3084 ft 258 kts 335°
2026-05-05 07:54 53.44978 9.65868 3028 ft 257 kts
2026-05-05 07:54 53.46688 9.66629 3030 ft 257 kts 30°
2026-05-05 07:55 53.48017 9.68597 3037 ft 257 kts 50°
2026-05-05 07:55 53.49147 9.70871 3030 ft 249 kts 51°
2026-05-05 07:55 53.50252 9.73103 3035 ft 247 kts 50°
2026-05-05 07:55 53.51329 9.75261 3034 ft 238 kts 50°
2026-05-05 07:56 53.52368 9.77340 2980 ft 227 kts 50°
2026-05-05 07:56 53.53347 9.79304 2753 ft 215 kts 50°
2026-05-05 07:56 53.54298 9.81211 2493 ft 212 kts 50°
2026-05-05 07:56 53.55222 9.83068 2197 ft 198 kts 51°
2026-05-05 07:57 53.56075 9.84782 1952 ft 182 kts 51°
2026-05-05 07:57 53.56845 9.86330 1715 ft 163 kts 51°
2026-05-05 07:57 53.57534 9.87716 1501 ft 144 kts 50°
2026-05-05 07:57 53.58150 9.88958 1296 ft 134 kts 50°
2026-05-05 07:58 53.58738 9.90143 1084 ft 130 kts 50°
2026-05-05 07:58 53.59316 9.91309 896 ft 129 kts 49°
2026-05-05 07:58 53.59894 9.92479 741 ft 129 kts 48°
2026-05-05 07:58 53.60471 9.93647 513 ft 129 kts 48°
2026-05-05 07:59 53.61045 9.94802 373 ft 130 kts 49°
2026-05-05 07:59 53.61635 9.95982 200 ft 133 kts 49°
2026-05-05 07:59 53.62223 9.97173 46 ft 130 kts 47°
2026-05-05 07:59 53.62706 9.98149 42 ft 84 kts 51°
2026-05-05 08:00 53.63017 9.98778 45 ft 62 kts 50°
2026-05-05 08:00 53.63254 9.99256 47 ft 36 kts 56°
2026-05-05 08:00 53.63284 9.99552 46 ft 15 kts 95°
2026-05-05 08:00 53.63280 9.99625 48 ft 0 kts 97°
2026-05-05 08:01 53.63280 9.99628 48 ft 1 kts 97°
2026-05-05 08:01 53.63276 9.99674 48 ft 7 kts 101°
2026-05-05 08:01 53.63240 9.99744 48 ft 10 kts 149°
2026-05-05 08:02 53.63155 9.99818 48 ft 17 kts 152°
2026-05-05 08:02 53.63025 9.99933 48 ft 25 kts 152°
2026-05-05 08:02 53.62866 10.00053 46 ft 22 kts 154°
2026-05-05 08:02 53.62754 10.00150 48 ft 7 kts 153°
2026-05-05 08:03 53.62756 10.00221 47 ft 8 kts 56°
2026-05-05 08:03 53.62771 10.00268 48 ft 0 kts 62°